Location: Dortmund
(51.5019°N, 7.6520°E)
Time: 00:22:15
(UTC+02:00)

ISS - Pass Details

Date: 24 March 2019
Orbit: 408 x 410 km, 51.6° (Epoch: 18 April)

Event Time Altitude Azimuth Distance (km) Brightness Sun altitude
Rises 19:26:31 0° 214° (SW) 2,328 0.4 -6.7°
Reaches altitude 10° 19:28:53 10° 199° (SSW) 1,470 -0.9 -7.0°
Maximum altitude 19:31:30 22° 146° (SE) 945 -2.4 -7.4°
Enters shadow 19:34:04 10° 93° (E) 1,450 -1.7 -7.8°
